Powrót do katalogu

DMSP 5D-2 F13 DEB

AktywnySSO
NORAD 40396·DEBRIS·🇺🇸 United States

Wystrzelony Mar 24, 1995 z Vandenberg Space Force Base

Loading…

Następne Przeloty (najbliższe 24 godziny)

TLE

ŚwieżeSource: Space-Track

Epoka: Sep 14, 2026, 12:04 UTC

1 40396U 95015H   26257.50337718  .00000071  00000-0  54069-4 0  9994
2 40396  98.7346 270.0587 0016045 129.3658 230.8942 14.19625837598264

Śledź DMSP 5D-2 F13 DEB w czasie rzeczywistym z AllMySat

Download on the App Store